Lid_Strength_Index
2 2 2 2 3 4 6 8 11 7 9 14 16 17 15 13 14 13 14 14 15 16 17 18 18 18 16 13 14 16 15 17 20 18 15 14 15 16 15 19 19 17 18 18
2 2 2 2 3 5 9 11 12 9 9 16 17 16 14 13 14 14 15 15 14 15 16 18 17 16 13 13 14 15 15 19 22 19 17 15 16 15 14 14 15 18 19 18
2 2 2 2 3 4 9 11 13 11 12 14 15 16 16 16 13 14 14 14 14 16 17 16 17 16 13 13 13 11 13 17 19 20 18 17 17 16 15 15 18 17 17 15
1 2 2 2 3 5 8 12 15 15 15 15 15 16 16 16 15 14 14 15 15 16 18 17 17 16 15 13 12 14 15 19 18 17 17 17 17 17 16 17 16 18 16 15
1 1 2 2 3 5 8 11 13 15 15 14 15 15 15 15 14 14 15 15 14 15 16 15 16 16 16 16 16 17 15 19 19 20 18 18 18 16 16 16 16 16 16 17
1 1 2 2 3 6 9 13 14 11 13 16 15 14 14 14 14 14 13 14 15 15 15 16 16 16 15 15 17 17 17 19 20 22 19 18 20 17 15 16 16 16 18 16
1 2 2 3 3 5 7 11 12 11 13 14 15 14 15 15 15 16 14 14 14 13 13 14 14 15 15 15 16 15 17 18 19 22 20 23 17 14 13 15 14 15 14 16
1 2 3 3 4 5 7 10 9 11 13 14 14 15 16 15 15 15 14 13 13 12 13 17 19 18 19 19 18 18 17 18 19 21 22 18 16 16 17 18 17 15 16 16
3 2 3 4 4 5 8 10 8 9 12 14 12 14 15 15 16 15 14 13 12 12 15 17 19 20 19 20 21 17 16 16 18 18 20 21 18 16 14 15 20 15 15 16
4 4 4 4 4 5 8 10 8 9 12 13 13 13 14 13 14 14 15 15 15 14 17 19 19 21 19 20 20 20 19 18 19 18 18 17 16 15 14 20 19 15 15 16
5 5 5 5 5 6 7 11 9 9 11 13 12 12 13 14 13 14 14 15 16 17 18 18 19 20 19 22 20 19 19 19 19 18 19 21 15 15 17 16 14 15 16 16
5 5 5 5 4 6 8 11 9 9 10 13 12 11 12 12 12 12 14 14 15 15 16 16 16 17 18 20 20 16 18 16 15 16 16 14 14 15 14 14 15 15 16 16
5 5 5 4 4 6 8 10 10 10 13 14 13 14 12 12 13 11 14 14 13 14 13 14 14 17 16 19 19 18 15 14 15 15 15 15 15 15 14 15 15 15 15 16
5 5 4 4 4 6 7 9 9 9 11 14 16 13 15 13 13 11 11 12 12 12 12 14 15 16 15 17 16 17 15 15 16 16 15 16 16 15 15 15 15 15 15 15
5 5 4 4 5 6 9 9 10 10 11 14 17 16 16 15 13 11 10 11 12 13 15 15 16 14 15 16 16 17 15 16 17 18 16 16 16 16 15 16 16 16 16 16
5 5 5 4 6 7 9 12 11 11 11 15 18 17 18 15 12 11 11 11 11 13 14 15 14 13 15 17 18 16 15 15 14 16 15 15 14 15 15 16 16 15 15 16
5 5 5 6 6 10 11 12 11 10 11 14 19 21 17 15 15 14 13 12 14 14 15 16 15 15 13 17 19 16 15 15 15 15 15 16 16 17 16 16 15 15 16 16
5 4 5 7 9 10 13 12 10 11 13 13 21 22 19 15 16 17 15 16 15 16 15 15 16 15 15 19 16 16 15 15 15 16 15 16 16 16 16 16 16 17 16 16
5 6 7 9 11 12 13 9 9 10 12 17 17 21 21 15 15 15 15 15 19 15 17 16 15 16 19 16 16 17 16 17 17 16 16 17 17 17 17 17 17 17 17 16
6 9 12 15 12 8 9 11 13 14 15 15 19 16 19 15 16 17 17 17 18 21 17 14 18 17 16 16 17 17 17 17 17 19 18 18 18 18 18 18 18 17 16 16
10 13 14 11 9 12 13 17 20 23 23 18 17 16 18 14 17 17 14 19 19 23 18 17 19 18 17 16 17 17 17 17 18 17 16 17 18 19 19 18 17 17 17 17
9 9 9 10 12 15 16 20 20 21 20 19 18 16 15 15 13 16 17 19 19 23 15 21 22 19 16 17 18 18 18 18 17 17 17 18 18 18 18 18 18 18 17 17
8 10 12 13 16 19 20 23 23 22 17 16 15 16 15 16 15 19 19 22 21 17 22 23 22 19 18 19 18 18 18 17 17 18 18 18 18 18 18 19 18 19 19 18
10 12 15 16 19 20 18 18 18 16 15 14 15 17 17 18 18 20 22 20 19 27 27 25 24 22 20 19 18 18 20 19 19 20 20 20 20 20 18 19 20 21 20 18
11 11 15 18 18 18 19 18 16 15 14 16 17 17 17 21 21 21 21 25 28 25 25 24 23 23 23 24 22 22 22 22 23 23 25 25 23 22 21 21 21 20 18 18
13 16 19 16 18 19 18 17 14 16 17 16 17 21 23 24 23 25 25 26 27 24 23 22 22 25 26 26 25 24 25 26 26 26 26 24 25 24 22 23 22 21 19 18
14 19 16 16 17 17 16 14 18 18 16 20 20 24 22 24 27 27 26 26 24 22 18 22 24 24 25 27 24 22 23 24 25 26 26 25 23 27 25 22 21 20 19 19